Weather Roundup
Issued by NWS Chicago, IL

Home | Current Version | Previous Version | Graphics & Text | Print | Product List | Glossary On
Versions: 1 2 3 4 5 6 7 8 9 10 11 12 13 14 15 16 17 18 19 20 21 22 23 24 25 26 27 28 29 30 31 32 33 34 35 36 37 38 39 40 41 42 43 44 45 46 47 48 49 50
000
NZUS59 KLOT 291004
HRRLOT

CHICAGO AREA WEATHER ROUNDUP
NATIONAL WEATHER SERVICE CHICAGO/ROMEOVILLE IL
500 AM CDT THU JUN 29 2017

NOTE: "FAIR" INDICATES FEW OR NO CLOUDS BELOW 12,000 FEET WITH NO
SIGNIFICANT WEATHER AND/OR OBSTRUCTIONS TO VISIBILITY.

* THESE STATIONS ARE NOT UNDER NWS QUALITY CONTROL. THEY ALSO MAY NOT
  REPORT WEATHER SUCH AS PRECIPITATION OR FOG.

ILZ005-006-012>014-019>023-291100-
NORTHEAST ILLINOIS

CITY           SKY/WX    TMP DP  RH WIND       PRES   REMARKS
OHARE          CLOUDY    71  64  78 S9        29.72S
MIDWAY         CLOUDY    73  65  75 S12       29.73S
AURORA         MOCLDY    70  64  81 SW9       29.75R
LANSING*       CLOUDY    73  63  69 S9        29.76S
JOLIET*        CLOUDY    73  66  79 SW3       29.76R
WAUKEGAN       CLOUDY    64  63  96 SW6       29.71R
DUPAGE AIRPORT CLOUDY    69  65  86 S6        29.73S
WHEELING       CLOUDY    68  67  96 S6        29.73R
MORRIS*        CLOUDY    71  64  78 SW7       29.76R
LEWIS AIRPORT* CLOUDY    70  63  78 SW9       29.76R
$$

WIZ051-052-058>065-066-070>072-291100-
SOUTHEAST WISCONSIN

CITY           SKY/WX    TMP DP  RH WIND       PRES   REMARKS
MILWAUKEE      CLOUDY    67  64  90 SW8       29.68S
KENOSHA*       MOCLDY    65  63  93 S8        29.70S
RACINE*        CLOUDY    64  62  93 S8        29.71S
$$

INZ001>003-010>013-019-020-291100-
NORTHWEST INDIANA

CITY           SKY/WX    TMP DP  RH WIND       PRES   REMARKS
GARY*          CLOUDY    77  63  61 S8        29.76F
MICHIGAN CITY* NOT AVBL
RENSSELAER*    NOT AVBL
VALPARAISO     CLOUDY    74  65  73 SW6       29.81R
$$

LMZ740>746-291100-
SOUTHERN LAKE MICHIGAN

STATION/POSITION TIME  SKY/WX   TEMP WIND        PRES    VSBY
                                AIR  DIR/SP/G
                 (UTC)          (F)  (DEG/KT/KT) (MB)    (MI)
HARRISON CRIB    0940            74  190/ 22/ 23   N/A
BURNHAM HARBOR   1000            73                N/A
CALUMET HARBOR   0930            74  190/  5/  9 1007.2R
BURNS HARBOR     0940            75  190/ 16/ 20 1008.1F
MICHIGAN CITY    0940            73  170/ 13/ 16   N/A
$$

ABBREVIATIONS USED IN REMARKS
   TC - TEMPERATURE IN CELSIUS
  WCI - WIND CHILL INDEX
   HX - HEAT INDEX
  VSB - VISIBILITY
$$




USA.gov is the U.S. government's official web portal to all federal, state and local government web resources and services.